TimeEST,TemperatureF,Dew PointF,Humidity,Sea Level PressureIn,VisibilityMPH,Wind Direction,Wind SpeedMPH,Gust SpeedMPH,PrecipitationIn,Events,Conditions,WindDirDegrees,DateUTC
12:54 AM,30.0,24.1,79,30.34,10.0,Calm,Calm,-,N/A,,Clear,0,2013-12-14 05:54:00
1:54 AM,30.0,24.1,79,30.33,10.0,Calm,Calm,-,N/A,,Clear,0,2013-12-14 06:54:00
2:54 AM,33.1,21.9,64,30.34,10.0,Calm,Calm,-,N/A,,Clear,0,2013-12-14 07:54:00
3:54 AM,32.0,24.1,73,30.34,10.0,Calm,Calm,-,N/A,,Clear,0,2013-12-14 08:54:00
4:54 AM,33.1,25.0,72,30.34,10.0,Calm,Calm,-,N/A,,Clear,0,2013-12-14 09:54:00
5:54 AM,34.0,25.0,70,30.35,10.0,NE,3.5,-,N/A,,Clear,40,2013-12-14 10:54:00
6:54 AM,34.0,28.0,79,30.36,10.0,ENE,4.6,-,N/A,,Overcast,60,2013-12-14 11:54:00
7:54 AM,37.0,28.9,73,30.35,10.0,East,5.8,-,0.00,,Overcast,80,2013-12-14 12:54:00
8:54 AM,39.9,28.9,65,30.36,10.0,ENE,5.8,-,N/A,,Overcast,70,2013-12-14 13:54:00
9:54 AM,42.1,30.0,62,30.36,10.0,East,4.6,-,N/A,,Overcast,90,2013-12-14 14:54:00
10:54 AM,44.1,32.0,63,30.32,10.0,East,6.9,-,N/A,,Overcast,100,2013-12-14 15:54:00
11:54 AM,46.9,33.1,59,30.26,10.0,ESE,8.1,-,N/A,,Partly Cloudy,110,2013-12-14 16:54:00
12:54 PM,48.0,33.1,56,30.24,10.0,SSE,3.5,-,N/A,,Overcast,150,2013-12-14 17:54:00
1:54 PM,46.9,37.0,68,30.21,10.0,ENE,4.6,-,0.00,Rain,Light Rain,60,2013-12-14 18:54:00
2:54 PM,46.0,39.0,76,30.19,10.0,NNE,3.5,-,0.00,Rain,Light Rain,30,2013-12-14 19:54:00
3:54 PM,44.1,41.0,89,30.13,8.0,ENE,5.8,-,0.04,Rain,Light Rain,70,2013-12-14 20:54:00
4:54 PM,44.1,42.1,93,30.08,7.0,East,5.8,-,0.03,Rain,Light Rain,80,2013-12-14 21:54:00
5:54 PM,45.0,43.0,93,30.04,6.0,ENE,6.9,-,0.07,Rain,Light Rain,70,2013-12-14 22:54:00
6:37 PM,46.0,43.0,89,30.01,8.0,ENE,8.1,-,0.02,Rain,Light Rain,70,2013-12-14 23:37:00
6:54 PM,46.0,44.1,93,30.00,7.0,East,8.1,-,0.03,Rain,Light Rain,90,2013-12-14 23:54:00
7:18 PM,46.9,44.1,90,29.97,6.0,ESE,9.2,-,0.01,Rain,Light Rain,110,2013-12-15 00:18:00
7:36 PM,46.9,45.0,93,29.95,6.0,ESE,12.7,-,0.03,Rain,Light Rain,110,2013-12-15 00:36:00
7:54 PM,48.0,46.0,93,29.93,8.0,ESE,15.0,-,0.04,Rain,Light Rain,110,2013-12-15 00:54:00
8:41 PM,50.0,48.0,93,29.86,8.0,ESE,13.8,-,0.01,Rain,Light Rain,110,2013-12-15 01:41:00
8:54 PM,51.1,48.9,92,29.85,8.0,ESE,12.7,-,0.01,,Overcast,110,2013-12-15 01:54:00
9:32 PM,53.1,51.1,93,29.79,5.0,SE,12.7,-,0.03,Rain,Rain,130,2013-12-15 02:32:00
9:54 PM,55.0,53.1,93,29.75,4.0,SE,16.1,-,0.07,Rain,Rain,140,2013-12-15 02:54:00
10:13 PM,55.9,54.0,93,29.72,2.5,SE,16.1,24.2,0.07,Rain,Rain,140,2013-12-15 03:13:00
10:24 PM,55.9,55.0,97,29.70,1.2,SE,13.8,-,0.18,Rain,Heavy Rain,140,2013-12-15 03:24:00
10:41 PM,57.0,55.0,93,29.68,2.0,SE,15.0,-,0.25,Rain,Rain,140,2013-12-15 03:41:00
10:51 PM,57.2,55.4,94,29.68,1.5,South,10.4,19.6,0.30,Rain,Rain,190,2013-12-15 03:51:00
10:54 PM,57.0,55.0,93,29.68,1.5,SSW,8.1,-,0.33,Rain,Heavy Rain,200,2013-12-15 03:54:00
11:13 PM,57.9,55.9,93,29.67,2.0,South,13.8,-,0.14,Rain,Heavy Rain,190,2013-12-15 04:13:00
11:18 PM,57.9,55.9,93,29.66,4.0,South,13.8,-,0.14,Rain,Light Rain,190,2013-12-15 04:18:00
11:26 PM,57.9,55.9,93,29.66,5.0,South,12.7,-,0.14,Rain,Light Rain,190,2013-12-15 04:26:00
11:32 PM,57.9,55.9,93,29.65,2.5,South,12.7,-,0.18,Rain,Rain,190,2013-12-15 04:32:00
11:42 PM,57.9,55.9,93,29.66,3.0,SSW,10.4,-,0.19,Rain,Light Rain,210,2013-12-15 04:42:00
11:45 PM,57.9,55.0,90,29.66,2.5,SW,10.4,-,0.20,Rain,Light Rain,220,2013-12-15 04:45:00
11:54 PM,57.0,55.9,96,29.65,1.8,SSW,8.1,-,0.22,Rain,Rain,210,2013-12-15 04:54:00